Satellite: NCUBE2
Catalog number: 28897
Epoch time:      07326.67447870
Element set:    0410
Inclination:      098.1146 deg
RA of node:       220.2231 deg
Eccentricity:    0.0017129
Arg of perigee:   342.4119 deg
Mean anomaly:     017.6511 deg
Mean motion:   14.59772741 rev/day
Decay rate:       1.65e-06 rev/day^2
Epoch rev:           10249
Checksum:              292

Satellite: FCAL
Catalog number: 29667
Epoch time:      07327.46957547
Element set:     524
Inclination:      051.6331 deg
RA of node:       335.2363 deg
Eccentricity:    0.0008588
Arg of perigee:   253.5064 deg
Mean anomaly:     106.5017 deg
Mean motion:   15.95215850 rev/day
Decay rate:     3.4492e-04 rev/day^2
Epoch rev:            5336
Checksum:              312

Satellite: FALCON
Catalog number: 30776
Epoch time:      07325.44680196
Element set:    0195
Inclination:      035.4349 deg
RA of node:       339.2735 deg
Eccentricity:    0.0001737
Arg of perigee:   354.3186 deg
Mean anomaly:     005.7510 deg
Mean motion:   15.02804063 rev/day
Decay rate:       2.55e-06 rev/day^2
Epoch rev:           03872
Checksum:              289

Satellite: MAST
Catalog number: 31126
Epoch time:      07326.67420782
Element set:     189
Inclination:      098.0676 deg
RA of node:       034.1177 deg
Eccentricity:    0.0093806
Arg of perigee:   254.8891 deg
Mean anomaly:     104.1920 deg
Mean motion:   14.53377717 rev/day
Decay rate:       -1.6e-07 rev/day^2
Epoch rev:            3187
Checksum:              306

Satellite: CAPE1
Catalog number: 31130
Epoch time:      07326.76010786
Element set:     169
Inclination:      098.0677 deg
RA of node:       033.6869 deg
Eccentricity:    0.0102116
Arg of perigee:   256.0165 deg
Mean anomaly:     102.9630 deg
Mean motion:   14.51903250 rev/day
Decay rate:       -6.6e-07 rev/day^2
Epoch rev:            3162
Checksum:              272

/EX





More information about the Keps mailing list